Flag for Kazakhstan Weather past 2 weeks in Almaty, Kazakhstan

27 °F

Ice fog.

Feels Like: 20 °F
Forecast: 27 / 50 °F
Wind: 6 mph from North

Location: Almaty Airport

Current Time: Nov 26, 2015 at 9:07:06 PM

Latest Report: Nov 26, 2015 at 8:30 PM

Visibility: 0 mi

Pressure: 30.27 "Hg (27.39 "Hg at 790m altitude)

Humidity: 93%

Dew point: 25 °F

Location of AlmatyLocation

Historic Weather in Almaty — Graph


Almaty temperature yesterday

Maximum temperature yesterday: 37 °F (at 3:00 PM)
Minimum temperature yesterday: 27 °F (at 3:30 AM)
Average temperature yesterday: 31 °F

Past Weeks' High & Low Weather Summary

High57 °F (Nov 12, 1:30 PM)100% (Nov 16, 2:00 AM)30.51 "Hg (Nov 16, 2:00 AM)
Low27 °F (Nov 24, 5:30 AM)33% (Nov 16, 2:30 PM)29.59 "Hg (Nov 12, 1:30 PM)
Average38 °F82%30.19 "Hg
* Reported Nov 11 7:00 PM — Nov 26 7:30 PM, Almaty, Weather by CustomWeather, © 2015

Note: Actual official high and low records may vary slightly from our data, if they occured in-between our weather recording intervals... More about our weather records


Almaty weather history for previous 24 hours

Time TempWeatherWind HumidityBarometerVisibility
7:30 PM
Thu, Nov 26
30 °FIce fog.1 mph86%30.27 "Hg1 mi
7:00 PM30 °FIce fog.No wind93%30.30 "Hg1 mi
6:30 PM30 °FIce fog.1 mph93%30.27 "Hg1 mi
6:00 PM32 °FIce fog.1 mph87%30.27 "Hg2 mi
5:30 PM32 °FIce fog.3 mph87%30.27 "Hg2 mi
5:00 PM34 °FFog.3 mph81%30.27 "Hg3 mi
4:30 PM36 °FFog.3 mph75%30.27 "Hg3 mi
4:00 PM37 °FScattered clouds.3 mph70%30.27 "Hg3 mi
3:30 PM37 °FScattered clouds.3 mph70%30.27 "Hg3 mi
3:00 PM37 °FScattered clouds.3 mph70%30.27 "Hg3 mi
2:30 PM37 °FFog.6 mph70%30.27 "Hg3 mi
2:00 PM36 °FFog.6 mph75%30.27 "Hg3 mi
1:30 PM34 °FFog.3 mph75%30.27 "Hg2 mi
1:00 PM34 °FFog.1 mph75%30.30 "Hg2 mi
12:30 PM32 °FIce fog.3 mph80%30.30 "Hg2 mi
12:00 PM32 °FIce fog.3 mph87%30.33 "Hg2 mi
11:30 AM32 °FIce fog.6 mph80%30.33 "Hg3 mi
11:00 AM32 °FIce fog.3 mph80%30.33 "Hg2 mi
10:30 AM30 °FIce fog.6 mph86%30.30 "Hg2 mi
9:30 AM30 °FIce fog.6 mph86%30.33 "Hg2 mi
9:00 AM30 °FIce fog.3 mph86%30.33 "Hg2 mi
8:30 AM30 °FIce fog.6 mph86%30.33 "Hg2 mi
8:00 AM30 °FIce fog.6 mph86%30.33 "Hg2 mi
7:30 AM30 °FIce fog.6 mph86%30.30 "Hg2 mi
7:00 AM30 °FIce fog.No wind93%30.30 "Hg2 mi
6:30 AM30 °FIce fog.1 mph93%30.30 "Hg2 mi
6:00 AM32 °FIce fog.3 mph87%30.33 "Hg2 mi
5:30 AM32 °FIce fog.1 mph87%30.33 "Hg2 mi
5:00 AM32 °FIce fog.3 mph87%30.33 "Hg1 mi
4:30 AM32 °FIce fog.1 mph87%30.33 "Hg1 mi
4:00 AM32 °FIce fog.3 mph87%30.33 "Hg1 mi
3:30 AM32 °FIce fog.1 mph87%30.33 "Hg1 mi
3:00 AM32 °FIce fog.1 mph93%30.33 "Hg1 mi
2:30 AM32 °FIce fog.1 mph93%30.33 "Hg1 mi
2:00 AM32 °FIce fog.1 mph93%30.33 "Hg1 mi
1:30 AM32 °FIce fog.1 mph93%30.33 "Hg1 mi
1:00 AM32 °FIce fog.1 mph93%30.33 "Hg1 mi
12:30 AM32 °FIce fog.3 mph93%30.33 "Hg1 mi
12:00 AM32 °FIce fog.3 mph93%30.36 "Hg1 mi
11:30 PM
Wed, Nov 25
32 °FIce fog.1 mph93%30.36 "Hg1 mi
11:00 PM32 °FIce fog.3 mph93%30.36 "Hg1 mi
10:30 PM32 °FIce fog.1 mph93%30.36 "Hg1 mi
10:00 PM32 °FIce fog.1 mph93%30.36 "Hg1 mi
9:30 PM32 °FIce fog.3 mph93%30.39 "Hg1 mi
9:00 PM32 °FIce fog.1 mph93%30.39 "Hg1 mi
Weather by CustomWeather, © 2015

See weather overviewHow to use our weather pages